IBE0105 LEMD-SAEZ

Flight info

Callsign IBE0105
Flight time N/A
Altitude 29000
Route VTB N10 HIJ N857 KORNO UN857 TERTO N857 DEREV/N0490F300 N857 GUNET DCT OPADU UN857 BOTNO/N0503F320 UN857 AMBET/N0498F340 UN857 EGDED/N0482F360 UN857 MIMOL DCT PAPIX PAPIX7B
Aircraft A346/H-SDE2E3FGHIJ3J4J5M1RWXY/LB1D1

Departure

Time N/A
Airport Adolfo Suárez Madrid–Barajas Airport (LEMD)

Arrival

Time 2026-05-04 19:19
Airport Ezeiza International Airport - Ministro Pistarini (SAEZ)
Time Latitude Longitude Altitude Speed Heading
2026-05-04 14:41 -7.89929 -34.52158 31961 ft 491 kts 209°
2026-05-04 14:42 -7.95951 -34.55407 31990 ft 486 kts 210°
2026-05-04 14:42 -8.01897 -34.58629 31996 ft 483 kts 210°
2026-05-04 14:43 -8.04875 -34.60234 32198 ft 485 kts 210°
2026-05-04 14:43 -8.07844 -34.61835 32628 ft 481 kts 210°
2026-05-04 14:43 -8.10810 -34.63423 33112 ft 478 kts 209°
2026-05-04 14:43 -8.13802 -34.64888 33550 ft 477 kts 206°
2026-05-04 14:44 -8.16882 -34.66226 33938 ft 476 kts 205°
2026-05-04 14:44 -8.19943 -34.67508 33986 ft 475 kts 205°
2026-05-04 14:44 -8.26081 -34.70055 33991 ft 474 kts 205°
2026-05-04 14:45 -8.32191 -34.72588 33995 ft 475 kts 205°
2026-05-04 14:45 -8.38326 -34.75133 33994 ft 475 kts 205°
2026-05-04 14:46 -8.44453 -34.77677 33994 ft 475 kts 204°
2026-05-04 14:46 -8.50575 -34.80220 33996 ft 474 kts 204°
2026-05-04 14:47 -8.56657 -34.82745 33996 ft 473 kts 204°
2026-05-04 14:47 -8.62756 -34.85280 33999 ft 473 kts 204°
2026-05-04 14:48 -8.68834 -34.87807 34000 ft 473 kts 205°
2026-05-04 14:48 -8.74962 -34.90355 34000 ft 473 kts 204°
2026-05-04 14:49 -8.81030 -34.92877 34000 ft 472 kts 204°
2026-05-04 14:49 -8.87111 -34.95406 34001 ft 472 kts 204°
2026-05-04 14:50 -8.93217 -34.97944 34005 ft 471 kts 204°
2026-05-04 14:50 -8.99270 -35.00459 34005 ft 471 kts 204°
2026-05-04 14:51 -9.05286 -35.03102 34010 ft 470 kts 208°
2026-05-04 14:51 -9.11056 -35.06259 34009 ft 470 kts 211°
2026-05-04 14:52 -9.16743 -35.09553 34008 ft 470 kts 211°
2026-05-04 14:52 -9.22439 -35.12853 34007 ft 471 kts 211°
2026-05-04 14:53 -9.28118 -35.16141 34009 ft 471 kts 211°
2026-05-04 14:53 -9.33809 -35.19437 34008 ft 471 kts 211°
2026-05-04 14:54 -9.39484 -35.22723 34008 ft 471 kts 211°
2026-05-04 14:54 -9.45212 -35.26040 34007 ft 471 kts 211°
2026-05-04 14:55 -9.50907 -35.29338 34005 ft 472 kts 211°
2026-05-04 14:55 -9.56634 -35.32657 34004 ft 472 kts 211°
2026-05-04 14:56 -9.62316 -35.35949 34003 ft 472 kts 211°
2026-05-04 14:56 -9.68043 -35.39272 34005 ft 472 kts 211°
2026-05-04 14:57 -9.73721 -35.42567 34004 ft 472 kts 211°
2026-05-04 14:57 -9.79446 -35.45890 34006 ft 472 kts 211°
2026-05-04 14:58 -9.85126 -35.49188 34005 ft 473 kts 211°
2026-05-04 14:58 -9.89920 -35.51972 34007 ft 473 kts 211°
2026-05-04 14:59 -9.96576 -35.55838 34006 ft 473 kts 211°
2026-05-04 15:00 -10.05158 -35.60828 34007 ft 474 kts 211°
2026-05-04 15:00 -10.10890 -35.64162 34008 ft 475 kts 211°
2026-05-04 15:01 -10.19507 -35.69173 34009 ft 473 kts 211°
2026-05-04 15:01 -10.25202 -35.72487 34008 ft 473 kts 211°
2026-05-04 15:02 -10.30937 -35.75820 34010 ft 474 kts 211°
2026-05-04 15:02 -10.36696 -35.79174 34014 ft 474 kts 211°
2026-05-04 15:03 -10.42421 -35.82522 34021 ft 474 kts 211°
2026-05-04 15:03 -10.48138 -35.85867 34023 ft 474 kts 211°
2026-05-04 15:04 -10.53838 -35.89197 34027 ft 474 kts 211°
2026-05-04 15:04 -10.59562 -35.92540 34025 ft 474 kts 211°
2026-05-04 15:05 -10.65291 -35.95886 34025 ft 475 kts 210°
2026-05-04 15:05 -10.71040 -35.99245 34027 ft 475 kts 210°
2026-05-04 15:06 -10.76767 -36.02593 34026 ft 475 kts 210°
2026-05-04 15:07 -10.85384 -36.07630 34024 ft 476 kts 210°
2026-05-04 15:07 -10.91119 -36.10985 34024 ft 476 kts 210°
2026-05-04 15:08 -10.96873 -36.14352 34023 ft 476 kts 210°
2026-05-04 15:08 -11.02606 -36.17705 34026 ft 476 kts 210°
2026-05-04 15:09 -11.08389 -36.21088 34028 ft 477 kts 210°
2026-05-04 15:09 -11.14188 -36.24405 34027 ft 478 kts 208°
2026-05-04 15:10 -11.23049 -36.29072 34028 ft 478 kts 208°
2026-05-04 15:11 -11.31941 -36.33731 34028 ft 478 kts 208°
2026-05-04 15:11 -11.37839 -36.36823 34028 ft 478 kts 208°
2026-05-04 15:12 -11.43776 -36.39937 34027 ft 478 kts 208°
2026-05-04 15:12 -11.49694 -36.43044 34028 ft 478 kts 207°
2026-05-04 15:13 -11.55602 -36.46147 34029 ft 478 kts 207°
2026-05-04 15:13 -11.61523 -36.49257 34028 ft 478 kts 207°
2026-05-04 15:14 -11.67471 -36.52383 34029 ft 478 kts 207°
2026-05-04 15:14 -11.73380 -36.55490 34029 ft 479 kts 207°
2026-05-04 15:15 -11.79286 -36.58597 34028 ft 478 kts 207°
2026-05-04 15:15 -11.85241 -36.61732 34031 ft 478 kts 208°
2026-05-04 15:16 -11.94111 -36.66402 34031 ft 478 kts 208°
2026-05-04 15:17 -12.03003 -36.71089 34032 ft 479 kts 208°
2026-05-04 15:17 -12.11891 -36.75775 34032 ft 478 kts 208°
2026-05-04 15:18 -12.17797 -36.78889 34034 ft 477 kts 208°
2026-05-04 15:19 -12.26655 -36.83558 34038 ft 477 kts 208°
2026-05-04 15:19 -12.35490 -36.88228 34036 ft 477 kts 208°
2026-05-04 15:20 -12.41381 -36.91358 34030 ft 476 kts 208°
2026-05-04 15:20 -12.47278 -36.94485 34025 ft 475 kts 208°
2026-05-04 15:21 -12.53174 -36.97609 34030 ft 475 kts 208°
2026-05-04 15:22 -12.61971 -37.02269 34028 ft 475 kts 208°
2026-05-04 15:22 -12.70794 -37.06946 34022 ft 475 kts 208°
2026-05-04 15:23 -12.76656 -37.10055 34022 ft 475 kts 208°
2026-05-04 15:23 -12.82541 -37.13177 34025 ft 475 kts 208°
2026-05-04 15:24 -12.94311 -37.19425 34026 ft 475 kts 208°
2026-05-04 15:25 -13.00193 -37.22547 34032 ft 475 kts 208°
2026-05-04 15:26 -13.08989 -37.27220 34030 ft 475 kts 208°
2026-05-04 15:26 -13.17789 -37.31928 34031 ft 475 kts 208°
2026-05-04 15:27 -13.26575 -37.36618 34030 ft 475 kts 208°
2026-05-04 15:28 -13.35406 -37.41331 34030 ft 475 kts 208°
2026-05-04 15:29 -13.44217 -37.46036 34033 ft 475 kts 208°
2026-05-04 15:30 -13.64722 -37.56998 34038 ft 474 kts 208°
2026-05-04 15:31 -13.73525 -37.61710 34038 ft 475 kts 208°
2026-05-04 15:32 -13.88227 -37.69592 34043 ft 476 kts 208°
2026-05-04 15:34 -14.02901 -37.77467 34041 ft 475 kts 208°
2026-05-04 15:34 -14.11687 -37.82187 34046 ft 475 kts 208°
2026-05-04 15:35 -14.20473 -37.86913 34048 ft 475 kts 209°
2026-05-04 15:36 -14.29260 -37.91643 34050 ft 475 kts 208°
2026-05-04 15:36 -14.35139 -37.94810 34047 ft 475 kts 208°
2026-05-04 15:37 -14.40987 -37.97962 34051 ft 474 kts 208°
2026-05-04 15:37 -14.46841 -38.01118 34051 ft 474 kts 209°
2026-05-04 15:38 -14.52686 -38.04271 34050 ft 474 kts 209°
2026-05-04 15:38 -14.58568 -38.07447 34051 ft 475 kts 209°
2026-05-04 15:39 -14.64419 -38.10608 34050 ft 475 kts 209°
2026-05-04 15:40 -14.73172 -38.15339 34052 ft 474 kts 209°
2026-05-04 15:40 -14.79029 -38.18506 34054 ft 474 kts 209°
2026-05-04 15:41 -14.84866 -38.21664 34048 ft 473 kts 209°
2026-05-04 15:41 -14.90706 -38.24823 34050 ft 473 kts 209°
2026-05-04 15:42 -14.96539 -38.27979 34049 ft 474 kts 209°
2026-05-04 15:42 -15.02366 -38.31138 34049 ft 474 kts 209°
2026-05-04 15:43 -15.08230 -38.34336 34049 ft 474 kts 209°
2026-05-04 15:43 -15.14051 -38.37507 34050 ft 473 kts 209°
2026-05-04 15:44 -15.19884 -38.40681 34053 ft 473 kts 210°
2026-05-04 15:44 -15.25710 -38.43852 34053 ft 473 kts 209°
2026-05-04 15:45 -15.31557 -38.47034 34055 ft 472 kts 209°
2026-05-04 15:45 -15.37356 -38.50191 34059 ft 472 kts 209°
2026-05-04 15:46 -15.43177 -38.53365 34059 ft 473 kts 210°
2026-05-04 15:46 -15.49011 -38.56545 34061 ft 473 kts 210°
2026-05-04 15:47 -15.54872 -38.59742 34065 ft 473 kts 210°
2026-05-04 15:47 -15.60695 -38.62920 34066 ft 473 kts 210°
2026-05-04 15:48 -15.66537 -38.66110 34064 ft 473 kts 210°
2026-05-04 15:48 -15.75238 -38.70861 34063 ft 472 kts 210°
2026-05-04 15:49 -15.81068 -38.74044 34064 ft 472 kts 210°
2026-05-04 15:49 -15.86915 -38.77248 34064 ft 472 kts 210°
2026-05-04 15:50 -15.92717 -38.80439 34067 ft 473 kts 210°
2026-05-04 15:50 -15.98576 -38.83657 34069 ft 473 kts 211°
2026-05-04 15:51 -16.04392 -38.86848 34072 ft 473 kts 211°
2026-05-04 15:51 -16.10221 -38.90045 34074 ft 472 kts 211°
2026-05-04 15:52 -16.16035 -38.93232 34077 ft 471 kts 211°
2026-05-04 15:52 -16.21867 -38.96435 34083 ft 471 kts 211°
2026-05-04 15:53 -16.27669 -38.99569 34089 ft 471 kts 210°
2026-05-04 15:53 -16.33574 -39.02683 34096 ft 472 kts 210°
2026-05-04 15:54 -16.39438 -39.05780 34100 ft 472 kts 210°
2026-05-04 15:54 -16.45302 -39.08899 34103 ft 471 kts 211°
2026-05-04 15:55 -16.51106 -39.12165 34107 ft 470 kts 212°
2026-05-04 15:55 -16.56858 -39.15420 34109 ft 469 kts 212°
2026-05-04 15:56 -16.62606 -39.18659 34109 ft 469 kts 212°
2026-05-04 15:56 -16.68365 -39.21900 34110 ft 470 kts 212°
2026-05-04 15:57 -16.74151 -39.25154 34104 ft 469 kts 212°
2026-05-04 15:57 -16.79903 -39.28390 34103 ft 469 kts 212°
2026-05-04 15:58 -16.85641 -39.31620 34108 ft 469 kts 212°
2026-05-04 15:58 -16.91384 -39.34854 34107 ft 469 kts 212°
2026-05-04 15:59 -16.97152 -39.38101 34113 ft 469 kts 212°
2026-05-04 15:59 -17.02911 -39.41349 34114 ft 468 kts 212°
2026-05-04 16:00 -17.08650 -39.44605 34120 ft 469 kts 212°
2026-05-04 16:00 -17.14394 -39.47863 34123 ft 469 kts 212°
2026-05-04 16:01 -17.20149 -39.51123 34124 ft 468 kts 212°
2026-05-04 16:01 -17.25900 -39.54382 34124 ft 468 kts 212°
2026-05-04 16:02 -17.31609 -39.57616 34125 ft 467 kts 212°
2026-05-04 16:03 -17.40229 -39.62503 34122 ft 467 kts 212°
2026-05-04 16:03 -17.45968 -39.65761 34127 ft 467 kts 213°
2026-05-04 16:04 -17.51696 -39.69015 34127 ft 467 kts 213°
2026-05-04 16:04 -17.60289 -39.73899 34126 ft 466 kts 213°
2026-05-04 16:05 -17.66036 -39.77168 34128 ft 466 kts 213°
2026-05-04 16:06 -17.74618 -39.82055 34125 ft 467 kts 213°
2026-05-04 16:07 -17.86058 -39.88573 34119 ft 467 kts 213°
2026-05-04 16:08 -17.97469 -39.95076 34116 ft 466 kts 213°
2026-05-04 16:09 -18.11782 -40.03236 34124 ft 465 kts 213°
2026-05-04 16:10 -18.23200 -40.09729 34130 ft 466 kts 213°
2026-05-04 16:11 -18.34630 -40.16232 34135 ft 464 kts 213°
2026-05-04 16:12 -18.51694 -40.25958 34135 ft 465 kts 213°
2026-05-04 16:13 -18.63098 -40.32471 34144 ft 464 kts 214°
2026-05-04 16:14 -18.74446 -40.38961 34149 ft 463 kts 214°
2026-05-04 16:16 -18.88648 -40.47097 34162 ft 463 kts 214°
2026-05-04 16:17 -19.02819 -40.55234 34172 ft 462 kts 214°
2026-05-04 16:18 -19.14175 -40.61763 34174 ft 461 kts 214°
2026-05-04 16:19 -19.28295 -40.69894 34177 ft 461 kts 214°
2026-05-04 16:20 -19.42377 -40.78015 34171 ft 461 kts 214°
2026-05-04 16:22 -19.56474 -40.86155 34174 ft 461 kts 214°
2026-05-04 16:23 -19.73385 -40.95998 34225 ft 460 kts 215°
2026-05-04 16:25 -19.90260 -41.05836 34237 ft 459 kts 215°
2026-05-04 16:26 -20.09926 -41.17399 34236 ft 461 kts 215°
2026-05-04 16:28 -20.23937 -41.25666 34241 ft 459 kts 215°
2026-05-04 16:29 -20.43503 -41.37214 34227 ft 457 kts 215°
2026-05-04 16:31 -20.57426 -41.45439 34207 ft 458 kts 215°
2026-05-04 16:32 -20.74137 -41.55276 34194 ft 456 kts 215°
2026-05-04 16:33 -20.85303 -41.61859 34203 ft 457 kts 215°
2026-05-04 16:34 -20.93636 -41.66777 34208 ft 455 kts 216°
2026-05-04 16:35 -21.10265 -41.76603 34193 ft 454 kts 216°
2026-05-04 16:36 -21.18600 -41.81535 34190 ft 454 kts 216°
2026-05-04 16:37 -21.26867 -41.86460 34176 ft 453 kts 216°
2026-05-04 16:38 -21.37929 -41.93047 34186 ft 452 kts 216°
2026-05-04 16:39 -21.51725 -42.01262 34188 ft 451 kts 216°
2026-05-04 16:40 -21.62800 -42.07868 34182 ft 453 kts 216°
2026-05-04 16:41 -21.76588 -42.16095 34180 ft 452 kts 216°
2026-05-04 16:43 -21.90545 -42.23443 34188 ft 457 kts 210°
2026-05-04 16:43 -21.99388 -42.27336 34195 ft 457 kts 209°
2026-05-04 16:44 -22.11157 -42.32513 35757 ft 450 kts 210°
2026-05-04 16:45 -22.16964 -42.35074 36208 ft 448 kts 210°
2026-05-04 16:46 -22.31405 -42.41456 36225 ft 447 kts 209°
2026-05-04 16:47 -22.42965 -42.46601 36202 ft 448 kts 209°
2026-05-04 16:48 -22.54501 -42.51723 36181 ft 448 kts 209°
2026-05-04 16:49 -22.66109 -42.56875 36174 ft 448 kts 209°
2026-05-04 16:50 -22.77249 -42.62672 36167 ft 438 kts 220°
2026-05-04 16:51 -22.84091 -42.69079 36167 ft 429 kts 233°
2026-05-04 16:52 -22.90972 -42.79549 36159 ft 424 kts 240°
2026-05-04 16:53 -22.95942 -42.87502 36161 ft 426 kts 236°
2026-05-04 16:54 -23.03877 -42.97114 36154 ft 430 kts 230°
2026-05-04 16:55 -23.16436 -43.11065 36152 ft 430 kts 230°
2026-05-04 16:56 -23.26881 -43.22678 36144 ft 430 kts 230°
2026-05-04 16:57 -23.33104 -43.29671 36137 ft 429 kts 231°
2026-05-04 16:58 -23.41304 -43.39115 36137 ft 429 kts 230°
2026-05-04 17:00 -23.53632 -43.53222 36133 ft 429 kts 230°
2026-05-04 17:01 -23.63981 -43.64925 36134 ft 430 kts 229°
2026-05-04 17:02 -23.72516 -43.74083 36139 ft 430 kts 229°
2026-05-04 17:03 -23.78907 -43.80936 36135 ft 430 kts 229°
2026-05-04 17:03 -23.85317 -43.87832 36130 ft 430 kts 229°
2026-05-04 17:04 -23.94680 -43.97909 36133 ft 430 kts 228°
2026-05-04 17:05 -24.03454 -44.07389 36132 ft 440 kts 229°
2026-05-04 17:06 -24.09978 -44.14469 36130 ft 441 kts 228°
2026-05-04 17:07 -24.15083 -44.20008 36129 ft 441 kts 228°
2026-05-04 17:07 -24.20887 -44.26303 36133 ft 440 kts 228°
2026-05-04 17:08 -24.27393 -44.33370 36132 ft 440 kts 228°
2026-05-04 17:09 -24.31731 -44.38088 36132 ft 440 kts 228°
2026-05-04 17:09 -24.36098 -44.42840 36127 ft 443 kts 228°
2026-05-04 17:10 -24.47064 -44.54784 36124 ft 445 kts 228°
2026-05-04 17:11 -24.51409 -44.59566 36119 ft 445 kts 229°
2026-05-04 17:12 -24.57920 -44.66877 36123 ft 445 kts 229°
2026-05-04 17:13 -24.68743 -44.79007 36118 ft 445 kts 229°
2026-05-04 17:14 -24.77386 -44.88705 36117 ft 445 kts 229°
2026-05-04 17:15 -24.83851 -44.95972 36113 ft 445 kts 229°
2026-05-04 17:16 -24.92512 -45.05724 36124 ft 445 kts 229°
2026-05-04 17:17 -25.01163 -45.15485 36130 ft 445 kts 229°
2026-05-04 17:18 -25.09793 -45.25241 36126 ft 445 kts 229°
2026-05-04 17:19 -25.18422 -45.35018 36125 ft 445 kts 229°
2026-05-04 17:20 -25.27083 -45.44852 36130 ft 445 kts 229°
2026-05-04 17:20 -25.33537 -45.52193 36122 ft 445 kts 229°
2026-05-04 17:21 -25.42130 -45.61985 36128 ft 445 kts 228°
2026-05-04 17:22 -25.46444 -45.66909 36123 ft 445 kts 229°
2026-05-04 17:23 -25.55036 -45.76725 36124 ft 445 kts 229°
2026-05-04 17:24 -25.61486 -45.84101 36131 ft 444 kts 229°
2026-05-04 17:25 -25.71000 -45.95048 36133 ft 445 kts 229°
2026-05-04 17:26 -25.81290 -46.06920 36132 ft 445 kts 229°
2026-05-04 17:27 -25.94126 -46.21747 36127 ft 445 kts 229°
2026-05-04 17:28 -26.04402 -46.33653 36125 ft 445 kts 229°
2026-05-04 17:29 -26.19823 -46.51572 36122 ft 445 kts 229°
2026-05-04 17:31 -26.32703 -46.66582 36125 ft 445 kts 229°
2026-05-04 17:32 -26.45248 -46.81281 36118 ft 446 kts 229°
2026-05-04 17:33 -26.55480 -46.93287 36113 ft 445 kts 229°
2026-05-04 17:34 -26.65708 -47.05367 36109 ft 445 kts 229°
2026-05-04 17:35 -26.78436 -47.20512 36111 ft 444 kts 229°
2026-05-04 17:36 -26.83516 -47.26573 36107 ft 445 kts 229°
2026-05-04 17:36 -26.88628 -47.32679 36116 ft 445 kts 229°
2026-05-04 17:37 -26.93729 -47.38813 36111 ft 445 kts 229°
2026-05-04 17:37 -26.98798 -47.44910 36107 ft 445 kts 229°
2026-05-04 17:38 -27.03885 -47.51025 36108 ft 445 kts 229°
2026-05-04 17:38 -27.08951 -47.57119 36111 ft 445 kts 229°
2026-05-04 17:39 -27.16554 -47.66278 36110 ft 443 kts 229°
2026-05-04 17:39 -27.21604 -47.72368 36100 ft 444 kts 229°
2026-05-04 17:40 -27.26653 -47.78466 36096 ft 444 kts 230°
2026-05-04 17:40 -27.31707 -47.84575 36102 ft 444 kts 229°
2026-05-04 17:41 -27.36753 -47.90678 36093 ft 443 kts 230°
2026-05-04 17:41 -27.41779 -47.96815 36094 ft 443 kts 230°
2026-05-04 17:42 -27.46752 -48.02937 36091 ft 443 kts 230°
2026-05-04 17:42 -27.51748 -48.09079 36083 ft 442 kts 229°
2026-05-04 17:43 -27.56704 -48.15169 36093 ft 441 kts 229°
2026-05-04 17:43 -27.61702 -48.21313 36084 ft 442 kts 230°
2026-05-04 17:44 -27.66699 -48.27463 36080 ft 442 kts 230°
2026-05-04 17:44 -27.71689 -48.33633 36080 ft 442 kts 230°
2026-05-04 17:45 -27.76660 -48.39812 36078 ft 442 kts 230°
2026-05-04 17:45 -27.81604 -48.45943 36071 ft 442 kts 230°
2026-05-04 17:46 -27.86590 -48.52129 36073 ft 441 kts 230°
2026-05-04 17:46 -27.91546 -48.58287 36075 ft 441 kts 230°
2026-05-04 17:47 -27.96471 -48.64411 36080 ft 440 kts 230°
2026-05-04 17:47 -28.01449 -48.70607 36072 ft 440 kts 230°
2026-05-04 17:48 -28.06373 -48.76749 36069 ft 440 kts 230°
2026-05-04 17:48 -28.11340 -48.82950 36069 ft 440 kts 230°
2026-05-04 17:49 -28.16286 -48.89127 36057 ft 440 kts 230°
2026-05-04 17:49 -28.21196 -48.95270 36049 ft 440 kts 230°
2026-05-04 17:50 -28.26141 -49.01478 36030 ft 440 kts 230°
2026-05-04 17:50 -28.31087 -49.07662 36033 ft 439 kts 230°
2026-05-04 17:51 -28.36031 -49.13794 36044 ft 439 kts 230°
2026-05-04 17:51 -28.40986 -49.19935 36053 ft 439 kts 230°
2026-05-04 17:52 -28.45919 -49.26064 36060 ft 438 kts 230°
2026-05-04 17:52 -28.50845 -49.32231 36057 ft 438 kts 230°
2026-05-04 17:53 -28.55767 -49.38391 36055 ft 438 kts 230°
2026-05-04 17:53 -28.60667 -49.44524 36049 ft 438 kts 230°
2026-05-04 17:54 -28.65599 -49.50694 36051 ft 438 kts 230°
2026-05-04 17:54 -28.70501 -49.56837 36051 ft 438 kts 230°
2026-05-04 17:55 -28.75433 -49.63031 36045 ft 438 kts 230°
2026-05-04 17:55 -28.80338 -49.69190 36046 ft 438 kts 230°
2026-05-04 17:56 -28.85216 -49.75321 36046 ft 437 kts 230°
2026-05-04 17:56 -28.90126 -49.81503 36059 ft 436 kts 230°
2026-05-04 17:57 -28.95124 -49.87552 36084 ft 437 kts 229°
2026-05-04 17:57 -29.00170 -49.93560 36101 ft 436 kts 229°
2026-05-04 17:58 -29.05202 -49.99570 36106 ft 435 kts 229°
2026-05-04 17:58 -29.10224 -50.05586 36106 ft 435 kts 229°
2026-05-04 17:59 -29.15231 -50.11590 36102 ft 436 kts 230°
2026-05-04 18:00 -29.22795 -50.20687 36099 ft 435 kts 230°
2026-05-04 18:00 -29.27791 -50.26702 36104 ft 435 kts 229°
2026-05-04 18:01 -29.32808 -50.32754 36100 ft 435 kts 229°
2026-05-04 18:01 -29.37794 -50.38773 36095 ft 434 kts 230°
2026-05-04 18:02 -29.45300 -50.47845 36095 ft 436 kts 229°
2026-05-04 18:02 -29.50297 -50.53892 36100 ft 434 kts 229°
2026-05-04 18:03 -29.55245 -50.60004 36096 ft 431 kts 231°
2026-05-04 18:03 -29.60060 -50.66151 36078 ft 432 kts 231°
2026-05-04 18:04 -29.64928 -50.72354 36060 ft 431 kts 231°
2026-05-04 18:05 -29.72162 -50.81553 36046 ft 430 kts 231°
2026-05-04 18:05 -29.76978 -50.87680 36041 ft 431 kts 231°
2026-05-04 18:06 -29.84204 -50.96898 36032 ft 430 kts 231°
2026-05-04 18:06 -29.89043 -51.03071 36025 ft 432 kts 231°
2026-05-04 18:07 -29.93874 -51.09243 36019 ft 432 kts 231°
2026-05-04 18:07 -29.98703 -51.15427 36015 ft 432 kts 231°
2026-05-04 18:08 -30.03526 -51.21661 36014 ft 432 kts 231°
2026-05-04 18:08 -30.08308 -51.27858 36010 ft 431 kts 231°
2026-05-04 18:09 -30.17969 -51.40366 36007 ft 433 kts 231°
2026-05-04 18:10 -30.22760 -51.46579 36006 ft 433 kts 231°
2026-05-04 18:10 -30.27611 -51.52874 35994 ft 433 kts 231°
2026-05-04 18:11 -30.32411 -51.59111 35992 ft 433 kts 231°
2026-05-04 18:11 -30.37221 -51.65369 35978 ft 433 kts 231°
2026-05-04 18:12 -30.42037 -51.71639 35984 ft 433 kts 231°
2026-05-04 18:12 -30.46869 -51.77871 35985 ft 433 kts 230°
2026-05-04 18:13 -30.51864 -51.84026 35988 ft 433 kts 229°
2026-05-04 18:14 -30.59291 -51.93188 35999 ft 431 kts 229°
2026-05-04 18:14 -30.64203 -51.99271 36001 ft 432 kts 229°
2026-05-04 18:15 -30.74018 -52.11486 35989 ft 429 kts 228°
2026-05-04 18:16 -30.78854 -52.17509 35982 ft 427 kts 229°
2026-05-04 18:16 -30.83734 -52.23595 35981 ft 426 kts 228°
2026-05-04 18:17 -30.91034 -52.32749 35977 ft 424 kts 229°
2026-05-04 18:18 -30.98132 -52.41967 35974 ft 423 kts 229°
2026-05-04 18:18 -31.02858 -52.48092 35979 ft 423 kts 229°
2026-05-04 18:19 -31.09946 -52.57283 35986 ft 422 kts 229°
2026-05-04 18:19 -31.14690 -52.63436 35994 ft 422 kts 229°
2026-05-04 18:20 -31.19397 -52.69551 36004 ft 421 kts 228°
2026-05-04 18:20 -31.24105 -52.75688 36001 ft 420 kts 229°
2026-05-04 18:21 -31.28778 -52.81794 35999 ft 419 kts 229°
2026-05-04 18:21 -31.33417 -52.87881 35999 ft 419 kts 228°
2026-05-04 18:22 -31.38073 -52.94007 35992 ft 418 kts 228°
2026-05-04 18:22 -31.42726 -53.00127 35992 ft 418 kts 228°
2026-05-04 18:23 -31.47364 -53.06215 35988 ft 418 kts 229°
2026-05-04 18:23 -31.52014 -53.12339 35985 ft 418 kts 229°
2026-05-04 18:24 -31.56648 -53.18447 35987 ft 417 kts 228°
2026-05-04 18:24 -31.61293 -53.24577 35986 ft 417 kts 229°
2026-05-04 18:25 -31.65932 -53.30719 35989 ft 417 kts 228°
2026-05-04 18:25 -31.70561 -53.36850 35991 ft 417 kts 229°
2026-05-04 18:26 -31.75159 -53.42946 35994 ft 417 kts 229°
2026-05-04 18:26 -31.79763 -53.49064 35990 ft 416 kts 229°
2026-05-04 18:27 -31.84360 -53.55176 35988 ft 416 kts 229°
2026-05-04 18:27 -31.88972 -53.61323 35985 ft 415 kts 229°
2026-05-04 18:28 -31.93543 -53.67433 35985 ft 415 kts 229°
2026-05-04 18:28 -31.98143 -53.73573 35982 ft 415 kts 229°
2026-05-04 18:29 -32.02714 -53.79675 35970 ft 415 kts 229°
2026-05-04 18:29 -32.07253 -53.85772 35979 ft 414 kts 229°
2026-05-04 18:30 -32.14093 -53.95010 35972 ft 415 kts 229°
2026-05-04 18:31 -32.18679 -54.01203 35972 ft 414 kts 229°
2026-05-04 18:31 -32.23207 -54.07319 35969 ft 414 kts 229°
2026-05-04 18:32 -32.27767 -54.13470 35974 ft 414 kts 229°
2026-05-04 18:32 -32.32307 -54.19640 35967 ft 413 kts 230°
2026-05-04 18:33 -32.36430 -54.26101 35963 ft 412 kts 234°
2026-05-04 18:33 -32.40310 -54.32853 35963 ft 413 kts 235°
2026-05-04 18:34 -32.44178 -54.39594 35950 ft 413 kts 235°
2026-05-04 18:34 -32.48058 -54.46358 35944 ft 412 kts 234°
2026-05-04 18:35 -32.51899 -54.53074 35941 ft 412 kts 234°
2026-05-04 18:35 -32.55778 -54.59849 35949 ft 412 kts 234°
2026-05-04 18:36 -32.59557 -54.66473 35954 ft 411 kts 235°
2026-05-04 18:36 -32.62748 -54.72069 35958 ft 412 kts 235°
2026-05-04 18:37 -32.65960 -54.77710 35952 ft 412 kts 235°
2026-05-04 18:37 -32.69165 -54.83352 35955 ft 411 kts 235°
2026-05-04 18:38 -32.72343 -54.88952 35950 ft 410 kts 235°
2026-05-04 18:38 -32.75547 -54.94609 35957 ft 410 kts 235°
2026-05-04 18:39 -32.78727 -55.00223 35957 ft 410 kts 236°
2026-05-04 18:39 -32.81908 -55.05856 35953 ft 410 kts 236°
2026-05-04 18:40 -32.85080 -55.11482 35957 ft 409 kts 236°
2026-05-04 18:40 -32.88241 -55.17093 35951 ft 409 kts 235°
2026-05-04 18:41 -32.91423 -55.22749 35949 ft 409 kts 236°
2026-05-04 18:41 -32.94597 -55.28401 35951 ft 409 kts 236°
2026-05-04 18:42 -32.97757 -55.34041 35944 ft 410 kts 236°
2026-05-04 18:42 -33.00922 -55.39692 35947 ft 409 kts 236°
2026-05-04 18:43 -33.04076 -55.45339 35946 ft 409 kts 236°
2026-05-04 18:43 -33.07217 -55.50961 35943 ft 409 kts 236°
2026-05-04 18:44 -33.10379 -55.56638 35944 ft 409 kts 236°
2026-05-04 18:44 -33.13525 -55.62289 35942 ft 410 kts 236°
2026-05-04 18:45 -33.16664 -55.67940 35950 ft 410 kts 236°
2026-05-04 18:45 -33.19808 -55.73607 35947 ft 410 kts 236°
2026-05-04 18:46 -33.22970 -55.79318 35948 ft 410 kts 236°
2026-05-04 18:46 -33.26114 -55.85001 35946 ft 410 kts 236°
2026-05-04 18:47 -33.29244 -55.90669 35943 ft 410 kts 236°
2026-05-04 18:47 -33.32383 -55.96361 35938 ft 409 kts 237°
2026-05-04 18:48 -33.35500 -56.02024 35922 ft 409 kts 236°
2026-05-04 18:48 -33.38632 -56.07719 35923 ft 409 kts 237°
2026-05-04 18:49 -33.41742 -56.13387 35924 ft 409 kts 237°
2026-05-04 18:49 -33.44862 -56.19081 35899 ft 407 kts 237°
2026-05-04 18:49 -33.46387 -56.21870 35607 ft 398 kts 237°
2026-05-04 18:50 -33.47900 -56.24637 35310 ft 393 kts 236°
2026-05-04 18:50 -33.49382 -56.27343 35024 ft 391 kts 237°
2026-05-04 18:50 -33.50861 -56.30052 34740 ft 388 kts 237°
2026-05-04 18:50 -33.52332 -56.32747 34457 ft 388 kts 236°
2026-05-04 18:51 -33.53811 -56.35459 34172 ft 389 kts 237°
2026-05-04 18:51 -33.55289 -56.38172 33889 ft 390 kts 236°
2026-05-04 18:51 -33.56782 -56.40911 33621 ft 391 kts 236°
2026-05-04 18:51 -33.58276 -56.43660 33360 ft 393 kts 236°
2026-05-04 18:52 -33.59763 -56.46390 33103 ft 394 kts 236°
2026-05-04 18:52 -33.61269 -56.49163 32843 ft 397 kts 236°
2026-05-04 18:52 -33.62767 -56.51924 32582 ft 398 kts 237°
2026-05-04 18:52 -33.64285 -56.54718 32263 ft 400 kts 237°
2026-05-04 18:53 -33.65807 -56.57530 31840 ft 402 kts 237°
2026-05-04 18:53 -33.67333 -56.60349 31274 ft 403 kts 237°
2026-05-04 18:53 -33.68850 -56.63154 30607 ft 404 kts 236°
2026-05-04 18:53 -33.70377 -56.65978 29898 ft 406 kts 237°
2026-05-04 18:54 -33.71933 -56.68856 29134 ft 409 kts 237°
2026-05-04 18:54 -33.73474 -56.71705 28404 ft 411 kts 237°
2026-05-04 18:54 -33.75016 -56.74559 27913 ft 407 kts 237°
2026-05-04 18:54 -33.76552 -56.77408 27396 ft 404 kts 237°
2026-05-04 18:55 -33.78083 -56.80249 26937 ft 400 kts 238°
2026-05-04 18:55 -33.81096 -56.85847 25952 ft 395 kts 238°
2026-05-04 18:55 -33.82565 -56.88575 25510 ft 392 kts 238°
2026-05-04 18:56 -33.84036 -56.91315 25087 ft 388 kts 238°
2026-05-04 18:56 -33.85487 -56.94017 24670 ft 385 kts 238°
2026-05-04 18:56 -33.86937 -56.96719 24260 ft 381 kts 238°
2026-05-04 18:56 -33.88360 -56.99375 23857 ft 379 kts 239°
2026-05-04 18:57 -33.89789 -57.02045 23452 ft 377 kts 238°
2026-05-04 18:57 -33.91204 -57.04689 23046 ft 375 kts 239°
2026-05-04 18:57 -33.92599 -57.07295 22669 ft 373 kts 239°
2026-05-04 18:57 -33.93997 -57.09909 22281 ft 371 kts 239°
2026-05-04 18:58 -33.95392 -57.12524 21886 ft 369 kts 239°
2026-05-04 18:58 -33.96763 -57.15095 21490 ft 368 kts 239°
2026-05-04 18:58 -33.98141 -57.17680 21097 ft 366 kts 239°
2026-05-04 18:58 -33.99518 -57.20265 20695 ft 364 kts 239°
2026-05-04 18:59 -34.00882 -57.22826 20297 ft 362 kts 239°
2026-05-04 18:59 -34.02229 -57.25357 19903 ft 361 kts 239°
2026-05-04 18:59 -34.03585 -57.27907 19508 ft 359 kts 239°
2026-05-04 18:59 -34.04920 -57.30420 19106 ft 358 kts 239°
2026-05-04 19:00 -34.06256 -57.32936 18706 ft 356 kts 239°
2026-05-04 19:00 -34.07578 -57.35428 18315 ft 355 kts 239°
2026-05-04 19:00 -34.08911 -57.37942 17921 ft 353 kts 239°
2026-05-04 19:00 -34.10238 -57.40447 17514 ft 352 kts 239°
2026-05-04 19:01 -34.11573 -57.42965 17116 ft 350 kts 239°
2026-05-04 19:01 -34.12884 -57.45440 16718 ft 349 kts 239°
2026-05-04 19:01 -34.14193 -57.47914 16314 ft 348 kts 239°
2026-05-04 19:01 -34.15487 -57.50365 15921 ft 346 kts 239°
2026-05-04 19:02 -34.16780 -57.52808 15532 ft 349 kts 238°
2026-05-04 19:02 -34.18414 -57.55110 15273 ft 371 kts 224°
2026-05-04 19:02 -34.20429 -57.57085 15042 ft 374 kts 221°
2026-05-04 19:02 -34.22479 -57.59017 14796 ft 373 kts 221°
2026-05-04 19:03 -34.24538 -57.60974 14552 ft 372 kts 222°
2026-05-04 19:03 -34.26539 -57.62901 14316 ft 371 kts 222°
2026-05-04 19:03 -34.28546 -57.64854 14075 ft 370 kts 222°
2026-05-04 19:03 -34.30594 -57.66862 13830 ft 369 kts 223°
2026-05-04 19:04 -34.32597 -57.68835 13582 ft 367 kts 223°
2026-05-04 19:04 -34.34563 -57.70780 13338 ft 367 kts 223°
2026-05-04 19:04 -34.36535 -57.72734 13092 ft 366 kts 223°
2026-05-04 19:04 -34.38498 -57.74683 12851 ft 365 kts 223°
2026-05-04 19:05 -34.40470 -57.76644 12608 ft 364 kts 223°
2026-05-04 19:05 -34.42410 -57.78574 12367 ft 364 kts 223°
2026-05-04 19:05 -34.44384 -57.80539 12122 ft 364 kts 223°
2026-05-04 19:05 -34.46325 -57.82474 11880 ft 363 kts 223°
2026-05-04 19:06 -34.48271 -57.84414 11637 ft 362 kts 223°
2026-05-04 19:06 -34.50207 -57.86344 11403 ft 362 kts 223°
2026-05-04 19:06 -34.52152 -57.88286 11165 ft 361 kts 223°
2026-05-04 19:06 -34.54105 -57.90240 10915 ft 361 kts 223°
2026-05-04 19:07 -34.56042 -57.92175 10660 ft 360 kts 223°
2026-05-04 19:07 -34.57971 -57.94104 10431 ft 360 kts 222°
2026-05-04 19:07 -34.59897 -57.96034 10204 ft 360 kts 222°
2026-05-04 19:07 -34.61822 -57.97961 10033 ft 359 kts 222°
2026-05-04 19:08 -34.63759 -57.99902 9875 ft 359 kts 222°
2026-05-04 19:08 -34.65697 -58.01845 9771 ft 359 kts 222°
2026-05-04 19:08 -34.67621 -58.03775 9677 ft 359 kts 222°
2026-05-04 19:08 -34.69554 -58.05714 9623 ft 360 kts 222°
2026-05-04 19:09 -34.71468 -58.07636 9563 ft 360 kts 222°
2026-05-04 19:09 -34.73304 -58.09483 9449 ft 360 kts 222°
2026-05-04 19:09 -34.75241 -58.11429 9147 ft 358 kts 223°
2026-05-04 19:09 -34.77157 -58.13354 8804 ft 356 kts 223°
2026-05-04 19:10 -34.79064 -58.15274 8436 ft 354 kts 223°
2026-05-04 19:10 -34.80943 -58.17165 8043 ft 353 kts 223°
2026-05-04 19:10 -34.82838 -58.19075 7667 ft 352 kts 223°
2026-05-04 19:10 -34.84725 -58.20981 7250 ft 351 kts 223°
2026-05-04 19:11 -34.86604 -58.22877 6848 ft 348 kts 223°
2026-05-04 19:11 -34.88461 -58.24747 6531 ft 341 kts 223°
2026-05-04 19:11 -34.90265 -58.26567 5976 ft 331 kts 224°
2026-05-04 19:11 -34.91989 -58.28305 5643 ft 311 kts 223°
2026-05-04 19:12 -34.93600 -58.29929 5320 ft 294 kts 224°
2026-05-04 19:12 -34.96618 -58.32978 4758 ft 274 kts 224°
2026-05-04 19:12 -34.98090 -58.34475 4441 ft 274 kts 224°
2026-05-04 19:13 -34.99542 -58.35949 4108 ft 272 kts 223°
2026-05-04 19:13 -35.00970 -58.37397 3765 ft 261 kts 223°
2026-05-04 19:13 -35.02344 -58.38787 3514 ft 248 kts 223°
2026-05-04 19:13 -35.03628 -58.40087 3449 ft 237 kts 224°
2026-05-04 19:14 -35.04764 -58.41492 3325 ft 224 kts 248°
2026-05-04 19:14 -35.05017 -58.43267 3221 ft 213 kts 284°
2026-05-04 19:14 -35.04342 -58.44836 3014 ft 212 kts 319°
2026-05-04 19:14 -35.03068 -58.45690 2811 ft 210 kts 340°
2026-05-04 19:15 -35.01655 -58.46201 2683 ft 210 kts 343°
2026-05-04 19:15 -35.00270 -58.46639 2452 ft 204 kts 344°
2026-05-04 19:15 -34.98902 -58.47085 2221 ft 198 kts 343°
2026-05-04 19:15 -34.97626 -58.47521 2201 ft 180 kts 342°
2026-05-04 19:16 -34.96447 -58.47934 2223 ft 175 kts 342°
2026-05-04 19:16 -34.95279 -58.48347 2249 ft 175 kts 342°
2026-05-04 19:16 -34.94104 -58.48763 2203 ft 169 kts 342°
2026-05-04 19:16 -34.93004 -58.49149 2015 ft 162 kts 342°
2026-05-04 19:17 -34.91929 -58.49526 1803 ft 160 kts 342°
2026-05-04 19:17 -34.90855 -58.49902 1594 ft 159 kts 342°
2026-05-04 19:17 -34.89795 -58.50273 1388 ft 159 kts 343°
2026-05-04 19:17 -34.88734 -58.50643 1183 ft 158 kts 343°
2026-05-04 19:18 -34.87672 -58.51014 977 ft 158 kts 343°
2026-05-04 19:18 -34.86621 -58.51379 772 ft 157 kts 342°
2026-05-04 19:18 -34.85568 -58.51748 570 ft 157 kts 342°
2026-05-04 19:18 -34.84512 -58.52108 355 ft 156 kts 343°
2026-05-04 19:19 -34.83468 -58.52471 148 ft 155 kts 342°
2026-05-04 19:19 -34.82476 -58.52818 80 ft 130 kts 343°
2026-05-04 19:19 -34.81817 -58.53047 80 ft 65 kts 343°
2026-05-04 19:19 -34.81513 -58.53153 80 ft 32 kts 343°
2026-05-04 19:20 -34.81334 -58.53215 80 ft 20 kts 343°
2026-05-04 19:20 -34.81218 -58.53258 80 ft 14 kts 332°
2026-05-04 19:20 -34.81176 -58.53367 80 ft 15 kts 276°
2026-05-04 19:20 -34.81168 -58.53497 80 ft 12 kts 267°
2026-05-04 19:21 -34.81215 -58.53578 80 ft 13 kts 190°
2026-05-04 19:21 -34.81316 -58.53581 80 ft 15 kts 183°
2026-05-04 19:21 -34.81430 -58.53602 80 ft 17 kts 193°
2026-05-04 19:21 -34.81544 -58.53660 80 ft 18 kts 214°
2026-05-04 19:22 -34.81622 -58.53743 80 ft 5 kts 222°
2026-05-04 19:22 -34.81644 -58.53783 80 ft 5 kts 269°
2026-05-04 19:22 -34.81624 -58.53817 80 ft 6 kts 327°
2026-05-04 19:22 -34.81583 -58.53833 80 ft 6 kts 349°
2026-05-04 19:23 -34.81534 -58.53844 80 ft 4 kts 349°
2026-05-04 19:23 -34.81527 -58.53846 80 ft 0 kts 349°